This demonstration page uses our WeatherBlox Daily Observations layout. Learn more.

41.55636, -103.73856

Hourly Observations for August 3, 2015

Temp ( °F °C ) Dew Point ( °F °C ) Humidity (%) Winds ( mph kmh ) Pressure ( in mb ) Visibility ( mi km ) Precip ( " mm )
12:53 am 00:53 Clear 66 18.9 56 13.3 70 70 E 9 15 29.84 1010 10 16.0934 0 0
1:53 am 01:53 Clear 66 18.9 56 13.3 70 70 ENE 7 11 29.84 1011 10 16.0934 0 0
2:53 am 02:53 Clear 64 17.8 57 13.9 78 78 ENE 6 9 29.85 1011 10 16.0934 0 0
3:53 am 03:53 Clear 63 17.2 56 13.3 78 78 Calm 29.84 1011 10 16.0934 0 0
4:53 am 04:53 Clear 61 16.1 56 13.3 84 84 Calm 29.84 1011 10 16.0934 0 0
5:53 am 05:53 Sunny 60 15.6 55 12.8 84 84 E 5 7 29.85 1011 10 16.0934 0 0
6:53 am 06:53 Sunny 62 16.7 56 13.3 80 80 N 5 7 29.88 1012 10 16.0934 0 0
7:53 am 07:53 Sunny 67 19.4 58 14.4 73 73 N 3 6 29.89 1012 10 16.0934 0 0
8:53 am 08:53 Sunny 69 20.6 58 14.4 68 68 ESE 7 11 29.91 1013 10 16.0934 0 0
9:53 am 09:53 Sunny 73 22.8 60 15.6 64 64 ESE 6 9 29.89 1012 10 16.0934 0 0
10:53 am 10:53 Sunny 78 25.6 61 16.1 56 56 ESE 9 15 29.89 1012 10 16.0934 0 0
11:53 am 11:53 Sunny 81 27.2 61 16.1 51 51 ESE 10 17 29.88 1012 10 16.0934 0 0
12:53 pm 12:53 Sunny 82 27.8 58 14.4 44 44 E 9 15 29.87 1011 10 16.0934 0 0
1:53 pm 13:53 Sunny 83 28.3 60 15.6 46 46 E 9 15 29.85 1011 10 16.0934 0 0
2:53 pm 14:53 Sunny 88 31.1 61 16.1 40 40 E 15 24 29.83 1010 10 16.0934 0 0
3:53 pm 15:53 Partly Cloudy 89 31.7 62 16.7 41 41 ESE 15 24 29.81 1010 10 16.0934 0 0
4:53 pm 16:53 Sunny 88 31.1 63 17.2 43 43 ESE 12 19 29.79 1009 10 16.0934 0 0
5:53 pm 17:53 Sunny 89 31.7 51 10.6 27 27 SSW 9 15 29.79 1009 10 16.0934 0 0
6:53 pm 18:53 Sunny 84 28.9 51 10.6 32 32 S 3 6 29.81 1009 10 16.0934 0 0
7:53 pm 19:53 Sunny 78 25.6 61 16.1 56 56 E 3 6 29.82 1010 10 16.0934 0 0
8:53 pm 20:53 Mostly Clear 75 23.9 60 15.6 60 60 ESE 6 9 29.83 1010 10 16.0934 0 0
9:53 pm 21:53 Clear 72 22.2 56 13.3 57 57 ESE 6 9 29.85 1011 10 16.0934 0 0
10:53 pm 22:53 Clear 76 24.4 51 10.6 42 42 S 7 11 29.84 1010 10 16.0934 0 0
11:53 pm 23:53 Clear 74 23.3 51 10.6 45 45 S 6 9 29.83 1010 10 16.0934 0 0

Powered by AerisWeather